EW6088 Weather Reports


Display with metric or nautical units.
time (UTC)temp
F
wind
direction
speed
MPH
gust
MPH
rain 1hr
in
rain 24hr
in
rain mn
in
humidity
%
barometer
mb
20260504185403 74 169 2.0 6.0 0.00 0.00 0.00 40 1019.1
20260504184503 72 210 2.0 9.0 0.00 0.00 0.00 36 1018.9
20260504183603 72 285 2.0 8.0 0.00 0.00 0.00 38 1019.1
20260504182703 73 209 2.0 7.0 0.00 0.00 0.00 37 1019.1
20260504181803 73 223 2.0 8.0 0.00 0.00 0.00 38 1018.9
20260504180903 72 247 2.0 8.0 0.00 0.00 0.00 40 1019.0
20260504180003 71 244 2.0 6.0 0.00 0.00 0.00 38 1019.2
20260504175424 70 12 2.0 6.0 0.00 0.00 0.00 38 1019.2
20260504174503 71 357 1.0 6.0 0.00 0.00 0.00 40 1019.4
20260504173603 71 17 1.0 6.0 0.00 0.00 0.00 39 1019.4
20260504172703 70 116 2.0 4.0 0.00 0.00 0.00 35 1019.4
20260504171803 70 171 2.0 9.0 0.00 0.00 0.00 37 1019.3
20260504170903 69 227 2.0 6.0 0.00 0.00 0.00 38 1019.4
20260504150903 57 27 3.0 10.0 0.00 0.00 0.00 51 1021.2
20260504140903 55 154 2.0 10.0 0.00 0.00 0.00 57 1020.6
20260504081803 38 42 1.0 3.0 0.00 0.00 0.00 79 1019.0
20260504080903 38 36 1.0 2.0 0.00 0.00 0.00 78 1019.0
20260504050003 38 49 0.0 1.0 0.00 0.00 0.00 76 1020.0
20260504045424 38 43 0.0 2.0 0.00 0.00 0.00 76 1020.2
20260504044524 38 62 0.0 1.0 0.00 0.00 0.00 76 1020.0
20260504043603 38 26 0.0 1.0 0.00 0.00 0.00 75 1020.0
20260504042724 38 52 0.0 1.0 0.00 0.00 0.00 74 1019.8
20260504041803 39 82 0.0 1.0 0.00 0.00 0.00 72 1019.8
20260504040903 39 57 0.0 1.0 0.00 0.00 0.00 72 1020.0
20260504040004 39 37 0.0 1.0 0.00 0.00 0.00 70 1020.0
20260504035403 39 45 0.0 1.0 0.00 0.00 0.00 71 1019.8
20260504034503 40 18 0.0 1.0 0.00 0.00 0.00 69 1019.8
20260504033603 40 40 0.0 1.0 0.00 0.00 0.00 69 1019.8
20260504032703 40 62 0.0 1.0 0.00 0.00 0.00 70 1019.6
20260504031803 41 54 0.0 1.0 0.00 0.00 0.00 69 1019.6
20260504030903 41 35 0.0 2.0 0.00 0.00 0.00 68 1019.5
20260504030003 41 36 0.0 1.0 0.00 0.00 0.00 67 1019.8
20260504025424 41 34 0.0 2.0 0.00 0.00 0.00 69 1019.8
20260504024503 41 26 2.0 4.0 0.00 0.00 0.00 67 1020.2
20260504023603 42 25 1.0 2.0 0.00 0.00 0.00 66 1020.0
20260504022724 42 25 0.0 1.0 0.00 0.00 0.00 66 1020.2
20260504021803 43 21 0.0 1.0 0.00 0.00 0.00 64 1020.0
20260504020924 43 34 0.0 2.0 0.00 0.00 0.00 64 1020.2
20260504020024 44 32 0.0 2.0 0.00 0.00 0.00 60 1020.0
20260504015403 44 56 0.0 1.0 0.00 0.00 0.00 60 1019.8
20260504014503 45 41 0.0 1.0 0.00 0.00 0.00 59 1019.5
20260504013603 46 15 0.0 2.0 0.00 0.00 0.00 57 1019.5
20260504012703 46 8 0.0 2.0 0.00 0.00 0.00 57 1019.5
20260504011803 47 33 0.0 6.0 0.00 0.00 0.00 55 1019.2
20260504010903 47 22 0.0 2.0 0.00 0.00 0.00 56 1019.4
20260504010003 48 25 0.0 2.0 0.00 0.00 0.00 54 1019.3
20260504005403 49 20 0.0 1.0 0.00 0.00 0.00 52 1019.3
20260504004524 50 0 0.0 0.0 0.00 0.00 0.00 48 1019.3
20260504003603 51 19 0.0 1.0 0.00 0.00 0.00 47 1019.0
20260504002703 52 19 0.0 1.0 0.00 0.00 0.00 46 1019.2
20260504001803 53 30 0.0 2.0 0.00 0.00 0.00 46 1019.2
20260504000903 53 26 1.0 3.0 0.00 0.00 0.00 43 1019.1
20260504000003 54 29 1.0 4.0 0.00 0.00 0.00 40 1019.1
20260503235403 55 30 0.0 2.0 0.00 0.00 0.00 40 1019.0
20260503234524 56 30 1.0 4.0 0.00 0.00 0.00 39 1019.1
20260503233603 57 14 1.0 3.0 0.00 0.00 0.00 37 1018.8
20260503232703 59 12 1.0 3.0 0.00 0.00 0.00 35 1018.8
20260503231803 60 23 1.0 4.0 0.00 0.00 0.00 34 1018.8
20260503230903 60 22 2.0 6.0 0.00 0.00 0.00 34 1018.9
20260503230003 61 29 1.0 7.0 0.00 0.00 0.00 34 1018.4
20260503225403 61 37 2.0 9.0 0.00 0.00 0.00 33 1018.7
20260503224524 63 353 1.0 6.0 0.00 0.00 0.00 32 1018.8
20260503223603 64 313 2.0 8.0 0.00 0.00 0.00 29 1018.4
20260503222703 65 305 2.0 6.0 0.00 0.00 0.00 29 1018.8
20260503221803 66 324 1.0 3.0 0.00 0.00 0.00 27 1018.7
20260503220903 66 255 1.0 4.0 0.00 0.00 0.00 27 1018.7
20260503220003 67 179 2.0 4.0 0.00 0.00 0.00 29 1018.8
20260503215403 67 141 1.0 4.0 0.00 0.00 0.00 29 1018.8
20260503214503 67 53 1.0 3.0 0.00 0.00 0.00 28 1018.7
20260503213603 66 339 2.0 7.0 0.00 0.00 0.00 30 1018.8
20260503212703 65 4 3.0 8.0 0.00 0.00 0.00 27 1018.9
20260503211824 66 11 2.0 7.0 0.00 0.00 0.00 31 1018.9
20260503210903 66 353 1.0 4.0 0.00 0.00 0.00 30 1018.9
20260503210003 66 24 2.0 9.0 0.00 0.00 0.00 29 1019.3
20260503205403 65 32 2.0 9.0 0.00 0.00 0.00 30 1019.2
20260503204503 66 10 2.0 6.0 0.00 0.00 0.00 29 1019.2
20260503203603 66 76 2.0 6.0 0.00 0.00 0.00 30 1019.3
20260503202703 66 294 1.0 7.0 0.00 0.00 0.00 27 1019.1
20260503201803 66 40 2.0 8.0 0.00 0.00 0.00 29 1019.2
20260503200903 66 333 2.0 6.0 0.00 0.00 0.00 31 1019.4
20260503200003 65 304 2.0 9.0 0.00 0.00 0.00 26 1019.5
20260503195403 64 331 2.0 9.0 0.00 0.00 0.00 26 1019.4
20260503194503 63 3 2.0 10.0 0.00 0.00 0.00 26 1019.4
20260503193603 63 7 2.0 9.0 0.00 0.00 0.00 33 1019.8
20260503192703 62 19 3.0 9.0 0.00 0.00 0.00 30 1019.6
20260503191803 63 42 3.0 9.0 0.00 0.00 0.00 26 1019.9
20260503190924 62 42 3.0 10.0 0.00 0.00 0.00 30 1019.8
20260503190003 62 24 2.0 8.0 0.00 0.00 0.00 26 1019.9